Regional Weather Roundup
Issued by NWS

Home | Current Version | Previous Version | Graphics & Text | Print | Product List | Glossary On
Versions: 1 2 3 4 5 6 7 8 9 10 11 12 13 14 15 16 17 18 19 20 21 22 23 24 25 26 27
000
ASUS45 KCYS 172010
RWRWY

WYOMING REGIONAL WEATHER ROUNDUP
NATIONAL WEATHER SERVICE CHEYENNE WY
200 PM MDT THU APR 17 2014

NOTE:  "FAIR" INDICATES FEW OR NO CLOUDS BELOW 12,000 FEET
WITH NO SIGNIFICANT WEATHER AND/OR OBSTRUCTIONS TO VISIBILITY.

WYZ001-172100-
YELLOWSTONE NATIONAL PARK

CITY           SKY/WX    TMP DP  RH WIND       PRES   REMARKS
LK YELLOWSTONE   N/A     43  16  33 VRB6      30.01F
W YELLOWSTONE  NOT AVBL

$$
WYZ002>013-054>058-071-098>099-172100-
NORTHERN WYOMING

CITY           SKY/WX    TMP DP  RH WIND       PRES   REMARKS
JACKSON        SUNNY     50  19  29 SW14G22   30.00F
CODY           PTSUNNY   55  21  26 SW8G16    29.89F
GREYBULL       SUNNY     59  23  25 SE7       29.90F
WORLAND        SUNNY     59  22  24 S8        29.90F
SHERIDAN       SUNNY     56  30  37 VRB6      29.92F
BUFFALO        PTSUNNY   57  29  34 NE10      29.92F
GILLETTE       MOSUNNY   58  24  27 SW15G23   29.95F
HULETT         MOCLDY    52  32  46 S8        30.00
NEWCASTLE      FAIR      45  32  61 SE8       30.04

$$
WYZ014>020-022>026-101>103-172100-
CENTRAL WYOMING

CITY           SKY/WX    TMP DP  RH WIND       PRES   REMARKS
BIG PINEY      MOSUNNY   54  15  21 S12       30.04F
PINEDALE       CLEAR     46  21  36 S6        30.06F
DUBOIS         FAIR      46  16  29 W23       29.98S
LANDER         SUNNY     55  26  32 E6        29.93F
RIVERTON       SUNNY     53  17  24 VRB3      29.96F
CASPER         SUNNY     58  20  22 S15G22    29.95F
DOUGLAS        MOSUNNY   55  34  45 SE17      30.00F

$$
WYZ021-027>030-104>119-172100-
SOUTHERN WYOMING

CITY           SKY/WX    TMP DP  RH WIND       PRES   REMARKS
EVANSTON       SUNNY     56  22  26 W14G24    30.06F
KEMMERER       CLEAR     54  19  26 W16G23    30.05F
FORT BRIDGER   FAIR      58  21  24 W14G20    30.08F
ROCK SPRINGS   SUNNY     57  14  18 W17G25    30.03F
DIXON          FAIR      56  20  24 SW15      30.09F
RAWLINS        SUNNY     54  15  21 W20G28    30.03F
SARATOGA       FAIR      54  18  24 W17G25    30.06F
LARAMIE        SUNNY     49  17  28 W5        30.04F
CHEYENNE       MOSUNNY   53  17  24 VRB5      30.04F
TORRINGTON     SUNNY     54  32  43 SE9       30.04F
PINE BLUFFS    FAIR      55  27  33 NW6       30.05F

$$



USA.gov is the U.S. government's official web portal to all federal, state and local government web resources and services.